Hourly Data Report for September 23, 2017

All times are specified in Local Standard Time (LST). Add 1 hour to adjust for Daylight Saving Time where and when it is observed.

BUCTOUCHE CDA CS
NEW BRUNSWICK

46°25'49.006" N
64°46'05.009" W
35.90 m
8100593
71666
ABT

Download Data

Hourly Data (September 2017)
Hourly Data Report for September 23, 2017
Temp Definition
°C
Dew Point Temp Definition
°C
Rel Hum Definition
%
Wind Dir Definition
10's deg

Wind Spd Definition
km/h
Visibility Definition
km
Stn Press Definition
kPa
Hmdx Definition


Wind Chill Definition


Weather Definition


TIME
00:00 8.6 6.0 84 22 6   101.35     LegendNANA
01:00 7.7 5.9 88 21 7   101.30     LegendNANA
02:00 8.6 6.1 84 23 10   101.25     LegendNANA
03:00 8.1 6.3 88 21 9   101.18     LegendNANA
04:00 8.1 6.3 88 22 8   101.12     LegendNANA
05:00 7.6 6.2 91 21 8   101.08     LegendNANA
06:00 8.0 6.6 91 22 12   101.07     LegendNANA
07:00 9.6 7.3 86 23 11   101.07     LegendNANA
08:00 12.5 8.8 78 23 13   101.00     LegendNANA
09:00 16.0 9.8 67 23 18   100.96     LegendNANA
10:00 18.9 10.7 59 23 15   100.98     LegendNANA
11:00 22.4 9.2 43 23 17   100.89     LegendNANA
12:00 24.7 7.4 33 23 16   100.85 25   LegendNANA
13:00 26.3 6.6 29 23 19   100.81 26   LegendNANA
14:00 27.2 8.5 31 25 14   100.77 28   LegendNANA
15:00 27.7 10.2 33 25 13   100.72 29   LegendNANA
16:00 27.8 11.1 35 22 13   100.69 30   LegendNANA
17:00 26.6 11.6 39 22 11   100.76 29   LegendNANA
18:00 24.5 14.3 53 5 6   100.87 28   LegendNANA
19:00 21.3 13.8 62 7 2   100.95 25   LegendNANA
20:00 18.4 11.3 63 6 18   101.13     LegendNANA
21:00 17.5 10.3 63 7 14   101.19     LegendNANA
22:00 16.3 10.6 69 8 7   101.26     LegendNANA
23:00 14.6 10.7 78 8 6   101.23     LegendNANA

Notes on Data Quality.

Legend

  • E = Estimated
  • M = Missing
  • NA = Not Available
  • ‡ = Partner data that is not subject to review by the National Climate Archives
Date modified: